User: anonymous   Login
Location: Newark
(19.5361°N, 155.5761°W)
Time: 00:07:25
(UTC+00:00)
Language:

ESTCUBE 1 - Orbit

View from above orbital plane
View from above orbital plane
View from above satellite
View from above satellite

Ground track
Ground track

The orbit data is extracted from the following two-line orbital elements,

1 39161U 13021C   20093.77523658  .00000136  00000-0  29209-4 0  9990
2 39161  97.9651 178.3223 0010635 118.7342 241.4930 14.72296400370903
Epoch (UTC): 02 April 2020 18:36:20
Eccentricity: 0.0010635
inclination: 97.9651°
perigee height: 646 km
apogee height: 661 km
right ascension of ascending node: 178.3223°
argument of perigee: 118.7342°
revolutions per day: 14.72296400
mean anomaly at epoch: 241.4930°
orbit number at epoch: 37090

The dashed part of the orbit path shows where the satellite is in the earth's shadow,  

DLR